Wind_Speed
33 29 23 22 23 23 24 24 23 20 20 19 21 23 23 22 19 19 19 18 18 17 17 17 17 17 18 18 18 17 17 17 16 15 14 14 14 13 14 14 14 14 14 15
36 34 30 26 23 22 22 23 23 23 21 19 22 22 23 23 21 21 20 20 19 17 17 17 18 18 18 18 18 18 18 18 18 17 16 16 16 15 16 15 15 15 15 17
36 33 32 33 29 24 23 23 22 23 23 23 24 24 25 24 23 23 22 21 20 19 18 19 19 19 19 19 19 19 19 19 19 18 18 18 17 17 17 17 17 17 18 18
36 34 35 33 28 27 26 25 24 25 24 25 27 28 28 27 26 25 24 23 21 21 21 21 21 21 21 21 21 21 21 20 20 20 20 19 19 19 19 19 19 19 19 19
38 36 36 32 27 26 26 27 26 26 26 27 28 29 29 28 27 26 25 25 24 23 23 23 23 23 23 22 22 22 22 22 22 22 22 22 21 21 20 20 20 20 20 21
40 38 34 30 26 26 27 30 29 29 30 29 29 30 30 29 29 28 26 26 26 26 26 26 25 25 25 24 24 24 24 24 24 24 24 24 23 22 22 21 21 21 22 22
42 41 37 32 29 28 29 31 31 32 33 33 34 34 33 32 31 29 28 28 29 28 28 28 28 27 27 26 26 27 26 26 26 26 26 26 25 25 24 23 23 24 24 24
44 43 39 34 34 35 35 35 34 34 34 35 35 34 34 34 33 32 32 31 31 31 31 31 30 30 29 29 29 29 29 29 29 29 28 28 27 26 26 26 26 26 26 26
41 42 41 39 40 41 41 40 38 36 36 35 35 35 36 36 35 35 34 34 34 33 33 33 32 32 31 31 31 31 31 31 31 31 31 30 29 29 29 29 28 28 28 28
39 40 41 42 43 44 44 43 41 40 40 39 39 38 38 38 38 37 37 36 36 35 34 34 33 33 33 33 33 33 33 33 32 32 32 31 31 31 31 31 31 30 30 31
42 42 43 46 47 48 47 45 43 43 42 42 41 41 40 39 39 39 38 38 37 37 36 35 35 34 34 34 34 34 34 33 33 33 33 33 33 33 33 33 33 33 33 34
43 45 45 45 46 47 47 47 46 45 44 44 43 43 42 41 41 40 39 39 38 38 37 37 36 36 36 36 36 36 36 35 34 34 34 34 34 34 34 34 35 35 35 35
45 46 47 47 45 46 46 46 45 45 45 44 44 43 42 42 41 41 40 39 39 38 37 37 37 37 37 37 37 36 36 36 35 35 35 35 35 35 35 35 36 36 35 36
46 46 47 46 46 46 46 46 46 45 45 44 44 43 43 42 41 41 40 40 39 38 38 38 38 38 37 37 37 37 37 37 37 37 37 37 37 36 36 36 37 37 37 38
44 44 44 45 46 45 45 45 45 44 44 44 44 44 43 42 41 41 41 40 39 39 39 39 39 39 38 38 38 38 38 38 37 37 37 38 38 38 38 38 38 38 38 39
42 43 43 43 44 44 43 43 43 43 44 43 43 43 42 42 41 41 41 40 40 40 40 40 40 40 39 39 39 39 39 39 39 38 39 39 39 39 39 39 39 39 39 40
40 41 41 41 42 42 43 43 42 42 42 42 42 42 42 42 42 41 41 40 39 39 39 39 39 40 39 39 39 39 39 39 39 39 39 39 39 39 39 39 40 40 40 40
39 39 39 39 39 41 42 41 41 41 41 41 40 40 40 40 41 40 40 40 40 41 41 41 40 39 39 39 39 39 39 39 39 39 39 39 40 40 40 40 40 40 40 39
36 36 37 38 38 39 39 39 38 38 38 37 37 38 39 39 39 39 40 40 41 41 41 41 40 40 39 38 39 39 39 39 39 39 40 40 39 39 40 40 39 39 39 38
33 35 35 35 35 36 38 38 37 37 37 36 36 36 36 36 36 38 39 39 40 40 40 41 41 39 38 38 38 38 38 38 38 38 38 38 38 38 38 37 37 36 37 36
29 30 30 31 32 33 33 33 33 35 35 34 35 35 35 35 35 37 37 38 38 38 38 38 38 37 37 37 37 36 36 36 36 37 37 37 36 36 36 36 36 36 36 36
24 26 27 28 29 30 30 31 31 31 32 32 33 34 35 35 36 36 36 35 35 35 35 35 34 34 34 34 34 34 35 35 36 36 36 36 35 35 35 34 34 34 34 34
21 21 22 24 25 27 27 28 29 28 28 28 30 31 30 31 31 31 31 32 32 31 31 31 31 32 32 33 33 34 34 34 34 34 34 34 34 33 33 33 33 33 33 33
19 18 18 19 20 22 23 24 25 25 25 25 26 27 27 27 28 28 28 28 28 28 28 28 28 29 29 30 31 31 32 32 32 32 32 31 31 30 30 30 31 31 31 31
15 15 15 15 16 17 18 19 20 22 23 23 23 23 23 24 24 24 24 25 25 25 26 26 27 27 28 29 29 29 29 30 30 30 30 29 29 29 29 29 30 30 30 30
11 12 13 13 13 13 13 14 16 17 19 20 20 20 19 19 19 20 21 21 22 23 24 24 25 26 27 27 27 28 28 28 27 27 28 28 29 29 30 30 31 31 31 31
9 9 10 11 11 12 12 13 14 14 15 16 17 18 18 18 18 18 19 19 20 21 22 23 23 24 25 25 25 25 25 25 26 27 27 28 29 30 30 30 30 31 31 31
Wind_Direction
228 220 226 245 250 247 242 238 236 240 243 249 259 266 272 279 284 286 290 294 298 301 305 311 317 320 322 324 327 328 327 326 325 321 318 311 303 298 295 293 290 290 286 283
231 223 221 229 235 244 247 244 239 236 238 244 255 258 267 273 279 282 286 289 292 295 299 304 310 314 318 319 322 324 324 322 322 319 315 312 303 297 295 294 292 290 292 288
232 228 226 230 231 234 240 245 243 241 240 239 250 258 260 266 274 279 282 284 284 290 295 299 304 307 310 313 315 317 319 319 319 318 315 312 307 299 296 294 293 290 291 292
231 229 230 233 235 238 239 238 240 240 238 240 246 254 260 266 272 275 278 280 283 287 290 295 299 302 304 306 309 311 312 313 314 315 314 311 307 303 300 295 292 293 293 292
230 232 235 234 232 234 237 239 236 238 239 242 250 257 260 263 269 271 275 278 281 283 286 290 294 297 300 302 304 305 307 308 309 310 311 310 309 306 302 297 293 292 292 294
233 232 234 236 235 235 237 239 237 236 238 239 246 253 259 263 268 271 274 276 278 280 283 286 290 292 295 297 299 301 302 303 302 303 304 304 304 304 302 300 297 294 293 292
234 234 234 231 229 231 230 232 234 236 238 239 242 250 259 264 269 272 273 275 276 278 281 283 286 289 290 293 294 296 298 299 300 300 300 300 300 298 296 297 296 295 294 293
235 234 234 233 232 232 232 233 235 237 241 246 250 253 258 263 267 271 273 275 276 278 279 280 282 284 287 289 291 292 293 295 296 297 298 298 298 296 295 295 295 294 293 293
239 238 234 233 234 234 236 239 240 241 245 249 253 254 257 262 265 268 271 274 276 277 277 278 279 281 284 286 287 289 290 292 293 293 295 296 294 293 292 293 293 293 291 291
233 236 234 233 234 235 238 241 243 246 250 252 254 256 258 261 264 267 269 272 274 276 277 277 277 279 281 283 284 286 287 289 290 291 292 293 292 291 290 291 291 291 291 290
231 233 235 235 236 238 241 243 245 248 250 253 255 257 259 261 263 265 268 270 272 274 275 275 276 278 280 282 283 284 286 288 288 289 290 291 291 290 290 289 289 290 290 290
229 233 236 240 242 244 245 246 248 250 252 254 256 257 259 260 263 265 267 268 271 272 274 274 274 276 278 281 281 282 284 285 286 287 288 289 290 290 290 290 289 289 289 289
233 235 238 241 244 246 248 249 250 251 252 254 256 258 260 261 263 264 266 268 269 271 272 273 274 275 278 280 281 281 282 283 284 285 286 287 289 290 289 288 288 289 289 289
237 239 241 243 243 245 248 250 251 252 253 255 256 258 260 261 262 263 265 267 268 269 271 273 274 275 277 279 280 280 282 282 282 283 284 286 288 289 289 289 288 287 287 288
238 240 241 243 245 247 248 249 250 252 253 254 256 258 259 260 262 263 264 265 267 268 270 271 273 275 276 278 279 280 280 281 282 282 284 286 288 288 289 289 288 287 287 288
238 241 243 245 247 247 247 249 251 253 254 255 257 258 258 260 262 262 263 264 266 267 269 270 272 273 275 277 278 278 280 281 282 283 284 286 287 288 288 288 288 288 288 288
239 241 243 243 244 246 248 250 252 252 254 255 256 257 259 260 261 262 263 263 265 267 269 271 272 273 275 275 276 278 279 280 282 283 285 286 287 287 287 287 287 288 288 288
240 240 241 243 244 246 248 249 250 252 253 254 256 258 259 259 260 260 262 264 266 268 269 271 273 274 274 275 276 276 277 279 282 284 286 286 286 286 287 287 287 288 288 289
239 240 242 244 246 247 246 246 248 251 253 254 255 256 258 258 259 260 262 264 267 267 268 270 272 274 275 275 275 277 278 280 282 284 285 287 287 286 286 287 287 287 288 289
240 242 242 243 244 246 245 246 247 248 251 253 253 255 256 257 260 261 263 265 267 269 270 270 272 274 274 275 276 277 279 280 281 283 285 286 287 287 287 287 288 288 288 289
240 240 240 240 240 243 242 244 246 249 251 252 253 255 258 260 262 264 266 268 269 269 269 272 274 275 275 276 277 279 279 280 281 283 284 286 287 287 287 288 287 288 288 288
239 239 240 239 239 241 242 244 246 248 250 252 254 256 258 259 262 265 267 269 270 270 271 273 274 275 276 277 278 279 280 282 283 284 285 286 287 287 287 288 289 288 287 288
234 235 235 235 237 240 242 244 246 248 250 253 256 257 259 262 264 267 269 269 269 271 272 273 274 275 276 277 278 280 282 283 284 284 285 286 286 287 287 288 289 289 289 290
232 234 231 232 237 238 240 244 248 250 252 256 258 259 262 264 266 266 267 269 269 271 273 273 274 276 278 279 280 281 282 283 284 284 285 286 286 287 288 289 289 289 290 291
227 229 230 234 236 239 241 242 244 247 251 255 256 258 261 265 266 266 268 270 271 272 275 277 278 280 281 283 284 284 284 285 285 285 285 286 287 287 288 289 289 291 292 292
227 231 234 240 242 243 245 246 247 249 252 255 256 259 265 268 268 271 272 274 275 278 280 281 281 281 281 283 284 284 286 287 287 287 286 286 286 287 288 289 289 290 291 291
227 231 235 239 242 245 248 252 253 254 256 259 261 264 267 270 273 276 278 278 278 279 282 284 285 285 284 284 284 285 285 286 287 287 286 286 287 287 288 288 289 289 289 289
Height
5881 5887 5891 5893 5894 5896 5898 5901 5904 5907 5907 5906 5905 5904 5902 5901 5901 5901 5900 5900 5899 5898 5897 5896 5895 5893 5892 5890 5888 5886 5884 5882 5881 5879 5877 5876 5875 5874 5873 5872 5871 5871 5870 5870
5873 5879 5883 5886 5889 5892 5893 5896 5898 5900 5900 5901 5898 5898 5897 5897 5898 5898 5897 5897 5896 5895 5894 5893 5892 5891 5889 5888 5886 5884 5882 5880 5879 5877 5875 5873 5872 5871 5869 5869 5868 5867 5867 5866
5866 5872 5876 5878 5883 5887 5889 5891 5893 5894 5896 5895 5894 5893 5892 5893 5893 5894 5893 5893 5892 5892 5891 5890 5889 5888 5886 5885 5883 5882 5880 5878 5876 5874 5872 5871 5869 5868 5867 5866 5864 5863 5863 5862
5859 5864 5867 5874 5878 5881 5882 5885 5887 5888 5889 5889 5888 5888 5888 5888 5889 5889 5889 5888 5887 5887 5887 5886 5885 5884 5883 5882 5880 5879 5877 5875 5873 5872 5870 5868 5866 5864 5863 5862 5861 5859 5858 5857
5851 5855 5860 5866 5870 5873 5876 5877 5880 5881 5882 5882 5882 5882 5881 5882 5883 5883 5884 5884 5884 5883 5883 5882 5881 5880 5879 5878 5876 5875 5873 5871 5869 5868 5866 5864 5862 5861 5859 5857 5856 5855 5854 5853
5842 5847 5852 5860 5864 5865 5868 5869 5872 5873 5874 5875 5876 5876 5875 5876 5877 5878 5878 5878 5878 5878 5877 5877 5876 5875 5874 5873 5871 5870 5868 5867 5865 5863 5861 5860 5858 5856 5855 5853 5852 5850 5849 5848
5833 5837 5843 5850 5853 5856 5859 5860 5861 5863 5864 5866 5867 5869 5869 5870 5871 5872 5872 5872 5872 5871 5871 5871 5870 5869 5868 5867 5866 5865 5863 5861 5860 5858 5856 5854 5853 5851 5850 5848 5847 5845 5844 5842
5824 5829 5837 5841 5843 5846 5846 5848 5851 5853 5855 5858 5860 5862 5863 5863 5865 5865 5866 5866 5865 5865 5865 5864 5863 5863 5862 5861 5859 5858 5857 5855 5854 5852 5850 5848 5847 5845 5844 5842 5841 5839 5838 5836
5815 5821 5826 5830 5832 5834 5836 5839 5843 5845 5848 5851 5852 5854 5855 5856 5857 5858 5858 5858 5858 5858 5857 5857 5856 5855 5854 5853 5852 5851 5850 5848 5847 5845 5843 5842 5840 5838 5837 5835 5834 5832 5830 5829
5805 5808 5813 5817 5820 5822 5826 5830 5834 5837 5840 5842 5844 5846 5847 5848 5849 5849 5850 5850 5849 5849 5849 5848 5848 5847 5846 5845 5844 5843 5842 5840 5838 5837 5836 5834 5832 5831 5829 5827 5826 5824 5822 5821
5795 5798 5801 5805 5808 5813 5817 5821 5825 5828 5830 5832 5835 5836 5838 5839 5839 5840 5840 5840 5840 5840 5840 5839 5839 5838 5838 5837 5836 5834 5833 5832 5830 5829 5827 5826 5824 5822 5821 5819 5817 5816 5814 5812
5784 5787 5791 5795 5799 5804 5807 5811 5815 5818 5821 5822 5824 5826 5828 5829 5829 5830 5831 5831 5831 5831 5830 5830 5830 5829 5829 5828 5827 5825 5824 5823 5821 5820 5819 5817 5816 5814 5812 5810 5809 5807 5805 5803
5774 5777 5782 5786 5790 5793 5797 5801 5804 5807 5810 5811 5813 5815 5817 5818 5819 5820 5821 5821 5821 5821 5820 5820 5820 5819 5819 5818 5817 5816 5815 5813 5812 5811 5810 5808 5806 5805 5803 5802 5800 5798 5796 5794
5764 5768 5772 5776 5780 5783 5787 5790 5792 5795 5798 5800 5803 5804 5806 5807 5808 5809 5810 5810 5810 5810 5810 5810 5810 5809 5809 5808 5807 5806 5805 5804 5802 5801 5800 5798 5797 5795 5793 5792 5790 5788 5786 5784
5755 5758 5762 5765 5770 5773 5776 5778 5781 5783 5786 5789 5791 5793 5795 5796 5798 5798 5799 5799 5800 5800 5800 5800 5799 5799 5799 5798 5797 5796 5795 5794 5793 5791 5790 5788 5787 5785 5783 5781 5779 5778 5776 5774
5745 5749 5752 5755 5759 5762 5764 5767 5770 5773 5775 5778 5780 5781 5783 5785 5787 5787 5787 5788 5789 5789 5789 5788 5788 5788 5788 5787 5787 5786 5785 5783 5782 5781 5780 5778 5776 5774 5773 5771 5769 5767 5765 5763
5736 5738 5741 5744 5749 5751 5754 5757 5760 5762 5765 5767 5769 5771 5773 5774 5775 5776 5776 5777 5778 5778 5778 5777 5777 5777 5777 5777 5776 5775 5774 5773 5772 5770 5769 5767 5766 5764 5762 5760 5758 5756 5754 5751
5726 5728 5731 5735 5738 5741 5744 5747 5749 5752 5754 5756 5758 5760 5762 5763 5765 5765 5765 5766 5767 5767 5767 5767 5767 5767 5766 5765 5765 5764 5763 5762 5761 5760 5758 5756 5754 5753 5751 5749 5747 5745 5742 5740
5715 5718 5722 5726 5728 5731 5735 5737 5739 5742 5744 5746 5748 5750 5751 5752 5753 5754 5755 5756 5756 5756 5756 5756 5756 5756 5755 5754 5754 5753 5752 5751 5750 5749 5747 5745 5743 5741 5740 5738 5736 5733 5731 5729
5708 5711 5713 5717 5720 5722 5725 5727 5730 5733 5735 5737 5739 5740 5741 5742 5743 5744 5745 5745 5746 5746 5745 5745 5746 5745 5745 5744 5743 5743 5742 5740 5739 5738 5736 5734 5732 5731 5729 5727 5724 5722 5720 5718
5700 5702 5704 5708 5711 5713 5716 5719 5722 5724 5727 5729 5730 5731 5732 5733 5733 5734 5735 5735 5735 5735 5735 5735 5735 5735 5734 5733 5733 5732 5731 5730 5728 5727 5725 5724 5722 5720 5718 5716 5714 5712 5710 5708
5693 5695 5697 5700 5703 5706 5708 5711 5714 5716 5718 5720 5721 5722 5723 5724 5724 5725 5725 5725 5725 5725 5725 5725 5725 5725 5724 5723 5723 5722 5721 5719 5718 5717 5715 5713 5712 5710 5708 5706 5704 5702 5700 5698
5688 5690 5692 5694 5697 5699 5702 5704 5706 5708 5710 5711 5713 5713 5714 5714 5715 5716 5716 5717 5716 5716 5716 5716 5716 5716 5715 5714 5713 5712 5711 5709 5708 5707 5705 5703 5701 5700 5698 5696 5694 5692 5690 5688
5683 5685 5687 5690 5692 5694 5696 5698 5700 5702 5703 5705 5706 5706 5707 5707 5708 5708 5708 5708 5708 5708 5708 5707 5707 5706 5705 5704 5703 5702 5701 5700 5698 5697 5695 5694 5692 5690 5688 5687 5685 5683 5681 5679
5681 5683 5685 5686 5688 5690 5691 5693 5694 5696 5697 5698 5699 5700 5700 5701 5701 5701 5701 5701 5701 5701 5700 5700 5699 5698 5697 5696 5695 5694 5692 5691 5690 5688 5687 5685 5683 5681 5680 5678 5676 5674 5672 5670
5679 5680 5682 5683 5684 5686 5687 5688 5690 5691 5692 5693 5693 5694 5695 5694 5694 5694 5694 5694 5694 5693 5693 5692 5691 5690 5689 5688 5687 5686 5684 5683 5681 5680 5678 5676 5675 5673 5671 5669 5667 5665 5663 5661
5677 5678 5679 5680 5681 5683 5684 5685 5686 5687 5688 5688 5689 5690 5690 5690 5689 5689 5688 5688 5688 5687 5686 5685 5684 5683 5682 5681 5679 5678 5676 5675 5673 5672 5670 5668 5667 5664 5662 5660 5658 5656 5654 5652